User: anonymous   Login
Location: St Andrew
(49.4460°N, 2.5750°W)
Time: 23:56:15
(UTC+00:00)
Language:

Iridium 66 - Orbit

View from above orbital plane
View from above orbital plane
View from above satellite
View from above satellite

Ground track
Ground track

The orbit data is extracted from the following two-line orbital elements,

1 25289U 98021E   18055.59167554  .00000124  00000-0  37154-4 0  9998
2 25289  86.3957 118.3085 0002109  96.1136 264.0300 14.34219888 41187
Epoch (UTC): 24 February 2018 14:12:00
Eccentricity: 0.0002109
inclination: 86.3957°
perigee height: 776 km
apogee height: 779 km
right ascension of ascending node: 118.3085°
argument of perigee: 96.1136°
revolutions per day: 14.34219888
mean anomaly at epoch: 264.0300°
orbit number at epoch: 4118

The dashed part of the orbit path shows where the satellite is in the earth's shadow,  

DLR